[[{"header":{"parameterUnit":"m.s-1","parameterCategory":1,"la1":30.2991,"la2":30.254,"lo1":-89.0895,"lo2":-89.0444,"dy":0.0017,"dx":0.0017,"nx":28,"ny":28,"refTime":"2025-12-21T03:00:00:Z","depth":0,"parameterNumber":2,"parameterNumberName":"U-component_of_WINDS"},"data":[0,0,0,0,0,0,0,0,0,0,0,0,0,0,0,0,0,0,0,0,0,0,0,0,0,0,0,0,0,0,0,0,0,0,0,0,0,0,0,0,0,0,0,0,0,0,0,0,0,0,0,0,0,0,0,0,0,0,-5.6606,-5.6609,0,-5.6824,-5.6826,-5.6829,-5.6823,-5.682,-5.6817,-5.6814,-5.7037,-5.7045,-5.7054,0,0,0,0,0,0,0,0,0,0,0,0,0,-5.6189,-5.6196,-5.6606,-5.6609,-5.6612,-5.6823,-5.6826,-5.6829,-5.6823,-5.682,-5.6816,-5.6813,-5.7034,-5.7044,-5.7054,0,0,0,0,0,0,0,0,0,0,0,0,0,-5.6384,-5.6199,-5.6606,-5.6634,-5.6639,-5.6823,-5.6826,-5.683,-5.6824,-5.6819,-5.6815,-5.6811,-5.703,-5.7043,-5.7056,-5.7226,0,0,-5.7096,-5.7101,0,0,0,0,0,0,0,0,-5.6373,-5.64,-5.6627,-5.6633,-5.6638,-5.6791,-5.6761,-5.6963,-5.6825,-5.6754,-5.6814,-5.6809,-5.6959,-5.6977,-5.7028,-5.7236,-5.7246,-5.7097,-5.7105,-5.711,-5.7114,0,0,0,0,0,0,0,-5.636,-5.639,-5.6692,-5.6631,-5.6637,-5.6637,-5.666,-5.6799,-5.6878,-5.676,-5.676,-5.6785,-5.6961,-5.7015,-5.7033,-5.7249,-5.7096,-5.7108,-5.7116,-5.7121,-5.7611,-5.7616,0,0,0,0,0,0,-5.634,-5.6379,-5.6685,-5.6699,-5.6492,-5.6648,-5.6674,-5.6747,-5.6877,-5.6893,-5.6789,-5.6784,-5.6995,-5.7018,-5.7041,-5.725,-5.711,-5.7122,-5.713,-5.7606,-5.7612,-5.7618,0,0,0,0,0,0,-5.6331,-5.6367,-5.6677,-5.6539,-5.6578,-5.666,-5.6742,-5.6753,-5.6808,-5.6899,-5.6914,-5.683,-5.6993,-5.7022,-5.718,-5.7257,-5.7128,-5.714,-5.76,-5.7608,-5.7615,-5.7668,0,0,0,0,0,0,-5.6319,-5.6364,-5.6428,-5.6541,-5.6586,-5.6812,-5.6747,-5.6761,-5.683,-5.6826,-5.6941,-5.6956,-5.6991,-5.7161,-5.7193,-5.7273,-5.715,-5.7593,-5.7603,-5.7612,-5.7659,-5.7676,-5.7691,0,0,0,0,0,-5.6304,-5.6434,-5.6432,-5.6469,-5.6668,-5.6816,-5.6842,-5.688,-5.6836,-5.6903,-5.6962,-5.6953,-5.7244,-5.7177,-5.7214,-5.7298,-5.7588,-5.76,-5.7612,-5.7652,-5.7673,-5.769,0,0,0,0,0,0,-5.6327,-5.6449,-5.6448,-5.6618,-5.6707,-5.6815,-5.6899,-5.69,-5.7003,-5.6995,-5.7037,-5.7064,-5.7222,-5.7276,-5.72,-5.7471,-5.7411,-5.743,-5.7429,-5.745,-5.7465,-5.7448,-5.7161,0,0,0,0,0,-5.6352,-5.6462,-5.6563,-5.6703,-5.6748,-5.6816,-5.6882,-5.6904,-5.6998,-5.7035,-5.7106,-5.7198,-5.731,-5.7383,-5.7492,-5.7668,-5.7694,-5.7745,-5.776,-5.7773,-5.7788,-5.7888,-5.7912,-5.7656,-5.7656,-5.7656,0,0,-5.6405,-5.6485,-5.6551,-5.671,-5.6781,-5.6895,-5.6847,-5.6969,-5.7054,-5.7054,-5.7207,-5.7263,-5.7369,-5.7537,-5.7615,-5.7587,-5.7866,-5.7788,-5.7797,-5.7806,-5.7903,-5.7927,-5.7948,-5.7664,-5.7662,-5.7661,0,0,-5.6558,-5.663,-5.6755,-5.6829,-5.6939,-5.6984,-5.7014,-5.7124,-5.7161,-5.7316,-5.7319,-5.7422,-5.7614,-5.769,-5.7753,-5.7941,-5.7937,-5.7976,-5.8056,-5.8153,-5.8173,-5.8191,-5.8259,-5.8283,-5.7991,-5.7992,-5.7992,0,-5.6609,-5.678,-5.682,-5.6943,-5.7013,-5.702,-5.7149,-5.7218,-5.7358,-5.7407,-5.7374,-5.7618,-5.7689,-5.7877,-5.7923,-5.7974,-5.8011,-5.7961,-5.8167,-5.8186,-5.8203,-5.8268,-5.8294,-5.7996,-5.7995,-5.7995,-5.7994,0,-5.6838,-5.6957,-5.7045,-5.7181,-5.7262,-5.7387,-5.7447,-5.7525,-5.7541,-5.759,-5.775,-5.7837,-5.7964,-5.801,-5.8027,-5.8202,-5.8181,-5.8158,-5.8098,-5.8231,-5.8293,-5.8318,-5.8001,-5.8,-5.7999,-5.7998,0,0,-5.7007,-5.7167,-5.7199,-5.7262,-5.7386,-5.7479,-5.7606,-5.7731,-5.7797,-5.7895,-5.8003,-5.8168,-5.8148,-5.8221,-5.8247,-5.8332,-5.8476,-5.8298,-5.8301,-5.8328,-5.8676,-5.8692,-5.872,-5.8475,-5.848,-5.8484,-5.8667,0,-5.7173,-5.7398,-5.744,-5.7636,-5.7748,-5.7759,-5.787,-5.7959,-5.8009,-5.8112,-5.8168,-5.8285,-5.8249,-5.8294,-5.8378,-5.844,-5.8547,-5.8428,-5.8577,-5.8582,-5.8549,-5.8752,-5.8769,-5.8937,-5.8692,-5.8696,-5.8699,0,-5.7396,-5.7501,-5.7708,-5.782,-5.7869,-5.7968,-5.8088,-5.8186,-5.8288,-5.8319,-5.8403,-5.842,-5.8554,-5.849,-5.8676,-5.8595,-5.8659,-5.8699,-5.8707,-5.8721,-5.8647,-5.8771,-5.8991,-5.9016,-5.8737,-5.8734,-5.8731,0,-5.7499,-5.7692,-5.7842,-5.7896,-5.803,-5.81,-5.8159,-5.8257,-5.8331,-5.8437,-5.8486,-5.8605,-5.8671,-5.8764,-5.8814,-5.8762,-5.8997,-5.8937,-5.9027,-5.9026,-5.9074,-5.907,-5.9307,-5.9117,-5.9117,-5.9116,-5.9116,0,-5.7679,-5.7806,-5.789,-5.7982,-5.8126,-5.8174,-5.8315,-5.8374,-5.8462,-5.8566,-5.8584,-5.8681,-5.8742,-5.885,-5.889,-5.9039,-5.9068,-5.9098,-5.9107,-5.9096,-5.9092,-5.9137,-5.9126,-5.9123,-5.9122,-5.912,-5.9119,0,-5.7816,-5.7878,-5.8043,-5.8158,-5.8191,-5.8291,-5.839,-5.8481,-5.8534,-5.8666,-5.87,-5.8782,-5.891,-5.897,-5.9128,-5.9155,-5.9325,-5.9326,-5.929,-5.9293,-5.938,-5.9371,-5.9653,-5.9693,-5.9478,-5.948,-5.9481,0,-5.7926,-5.8024,-5.8152,-5.8223,-5.8285,-5.84,-5.8477,-5.853,-5.8609,-5.8735,-5.8811,-5.894,-5.9045,-5.925,-5.9324,-5.9446,-5.945,-5.9541,-5.9468,-5.9455,-5.9451,-5.9444,-5.9455,-5.9553,-5.9555,-5.9556,-5.9558,0,-5.8115,-5.8142,-5.8251,-5.8373,-5.8464,-5.8562,-5.8659,-5.8717,-5.8786,-5.8874,-5.9005,-5.9088,-5.9251,-5.9379,-5.9506,-5.9569,-5.9576,-5.9581,-5.9608,-5.9597,-5.9572,-5.9587,-5.9325,-5.9573,-5.9572,-5.9571,-5.957,-5.9569,-5.8242,-5.833,-5.8435,-5.8557,-5.8636,-5.8727,-5.8819,-5.8884,-5.8995,-5.9132,-5.9157,-5.9297,-5.9401,-5.9573,-5.9641,-5.9752,-5.9731,-5.977,-5.978,-5.9789,-5.9794,-5.9556,-5.9776,-5.9775,-5.9775,-5.9775,-5.9774,0,-5.8431,-5.85,-5.8612,-5.8748,-5.8845,-5.8845,-5.8953,-5.9034,-5.9158,-5.9254,-5.9359,-5.9512,-5.9637,-5.9723,-5.9851,-5.9924,-5.9931,-5.9956,-5.995,-5.9965,-5.9805,-5.9769,-5.9948,-5.9948,-5.9948,-5.9948,-5.9948,-5.9948,-5.854,-5.8691,-5.8731,-5.8923,-5.8991,-5.9129,-5.9191,-5.9276,-5.9353,-5.9523,-5.9628,-5.9684,-5.9778,-5.9913,-6.0029,-6.0052,-6.0098,-6.0123,-6.0145,-5.9994,-5.9976,-5.9958,-5.9924,-6.0133,-6.0133,-6.0295,-6.0297,-6.0298]},{"header":{"parameterUnit":"m.s-1","parameterCategory":1,"la1":30.2991,"la2":30.254,"lo1":-89.0895,"lo2":-89.0444,"dy":0.0017,"dx":0.0017,"nx":28,"ny":28,"refTime":"2025-12-21T03:00:00:Z","depth":0,"parameterNumber":3,"parameterNumberName":"V-component_of_WINDS"},"data":[0,0,0,0,0,0,0,0,0,0,0,0,0,0,0,0,0,0,0,0,0,0,0,0,0,0,0,0,0,0,0,0,0,0,0,0,0,0,0,0,0,0,0,0,0,0,0,0,0,0,0,0,0,0,0,0,0,0,1.4003,1.4004,0,1.4044,1.4044,1.4044,1.4039,1.4038,1.4038,1.4037,1.4075,1.4077,1.4079,0,0,0,0,0,0,0,0,0,0,0,0,0,1.392,1.3922,1.4003,1.4004,1.4004,1.4043,1.4044,1.4045,1.4039,1.4038,1.4038,1.4037,1.4075,1.4077,1.4079,0,0,0,0,0,0,0,0,0,0,0,0,0,1.3958,1.3922,1.4003,1.4006,1.4007,1.4043,1.4044,1.4045,1.4039,1.4038,1.4037,1.4036,1.4074,1.4077,1.4079,1.4114,0,0,1.4086,1.4087,0,0,0,0,0,0,0,0,1.3956,1.3961,1.4005,1.4006,1.4007,1.4035,1.4029,1.4068,1.404,1.4027,1.4037,1.4036,1.4063,1.4066,1.4076,1.4115,1.4117,1.4087,1.4088,1.4089,1.409,0,0,0,0,0,0,0,1.3953,1.3959,1.4019,1.4006,1.4007,1.4005,1.401,1.4036,1.405,1.4028,1.4028,1.4033,1.4063,1.4073,1.4076,1.4118,1.4087,1.4089,1.409,1.4091,1.419,1.4191,0,0,0,0,0,0,1.395,1.3957,1.4018,1.402,1.3979,1.4008,1.4012,1.4027,1.4049,1.4052,1.4034,1.4032,1.407,1.4074,1.4078,1.4122,1.4089,1.4091,1.4093,1.4189,1.419,1.4192,0,0,0,0,0,0,1.3948,1.3955,1.4016,1.3989,1.3996,1.401,1.4027,1.4029,1.4039,1.4054,1.4056,1.4042,1.4069,1.4074,1.4105,1.4123,1.4093,1.4095,1.4188,1.4189,1.4191,1.4208,0,0,0,0,0,0,1.3946,1.3955,1.3968,1.3989,1.3998,1.4044,1.4028,1.403,1.4044,1.4042,1.4062,1.4064,1.4069,1.4102,1.4108,1.4126,1.4097,1.4186,1.4188,1.419,1.4206,1.4211,1.4214,0,0,0,0,0,1.3943,1.3971,1.3969,1.3977,1.4015,1.4045,1.405,1.4055,1.4045,1.4059,1.4068,1.4064,1.412,1.4105,1.4112,1.413,1.4185,1.4188,1.419,1.4205,1.421,1.4214,0,0,0,0,0,0,1.395,1.3973,1.3972,1.4007,1.4024,1.4044,1.4061,1.406,1.4079,1.4077,1.4082,1.4087,1.4119,1.4127,1.4111,1.4166,1.4151,1.4155,1.416,1.4165,1.4168,1.4166,1.4099,0,0,0,0,0,1.3956,1.3979,1.3997,1.4027,1.4036,1.4047,1.406,1.4063,1.408,1.4087,1.4099,1.4115,1.4137,1.4151,1.4171,1.4207,1.4212,1.4224,1.4227,1.4231,1.4234,1.4256,1.4262,1.42,1.42,1.42,0,0,1.3968,1.3983,1.3997,1.4029,1.4042,1.4066,1.4053,1.4078,1.4095,1.4091,1.4122,1.4131,1.415,1.4184,1.42,1.4192,1.4252,1.4234,1.4236,1.4238,1.4259,1.4265,1.427,1.4202,1.4202,1.4201,0,0,1.4002,1.4016,1.4043,1.4057,1.4079,1.4087,1.4093,1.4113,1.412,1.4151,1.4149,1.4169,1.4206,1.422,1.4232,1.4274,1.4271,1.428,1.43,1.4321,1.4326,1.4331,1.4347,1.4353,1.4283,1.4283,1.4283,0,1.4014,1.4051,1.4057,1.4083,1.4097,1.4096,1.4123,1.4136,1.4163,1.4173,1.4164,1.4212,1.4224,1.4262,1.4273,1.4282,1.429,1.4278,1.4325,1.433,1.4334,1.435,1.4356,1.4285,1.4284,1.4284,1.4284,0,1.4065,1.4091,1.411,1.4138,1.4154,1.418,1.419,1.4206,1.4208,1.4216,1.4249,1.4264,1.4288,1.4297,1.4298,1.4337,1.4332,1.4324,1.4309,1.4341,1.4356,1.4362,1.4286,1.4286,1.4285,1.4285,0,0,1.4105,1.4137,1.4145,1.4158,1.4182,1.4202,1.4228,1.4254,1.4268,1.4286,1.4309,1.4341,1.4335,1.4349,1.4351,1.4369,1.4404,1.436,1.436,1.4369,1.4449,1.4456,1.4463,1.4402,1.4403,1.4404,1.4448,0,1.4143,1.4192,1.42,1.4243,1.4267,1.4266,1.429,1.4307,1.4316,1.4337,1.4346,1.437,1.4359,1.4367,1.4385,1.4396,1.442,1.4392,1.4424,1.4425,1.4421,1.447,1.4477,1.4518,1.4454,1.4455,1.4455,0,1.4194,1.4217,1.4263,1.4286,1.4296,1.4317,1.4342,1.4362,1.4382,1.4387,1.4404,1.4405,1.4432,1.4416,1.4455,1.4436,1.4449,1.4456,1.4458,1.4462,1.4443,1.4477,1.4531,1.4538,1.4464,1.4464,1.4463,0,1.4221,1.4262,1.4296,1.4307,1.4334,1.435,1.4361,1.438,1.4396,1.4417,1.4427,1.445,1.4464,1.4482,1.4489,1.4476,1.4528,1.4511,1.4534,1.4534,1.4546,1.4545,1.4605,1.4552,1.4552,1.4551,1.4551,0,1.4264,1.4293,1.4309,1.433,1.4362,1.437,1.4401,1.4412,1.4429,1.4452,1.4452,1.4473,1.4481,1.4503,1.4509,1.4541,1.4547,1.4552,1.4553,1.4553,1.4553,1.4563,1.4561,1.4553,1.4553,1.4552,1.4552,0,1.43,1.4312,1.4349,1.4372,1.4379,1.4402,1.4421,1.4442,1.4451,1.448,1.4487,1.4501,1.4528,1.4536,1.4568,1.4572,1.461,1.4608,1.4604,1.4605,1.4628,1.4626,1.4697,1.4707,1.4646,1.4646,1.4647,0,1.4328,1.435,1.4377,1.4393,1.4406,1.4431,1.4448,1.4456,1.4473,1.4498,1.4516,1.4542,1.4565,1.4607,1.462,1.4644,1.4644,1.4667,1.4648,1.4647,1.4647,1.4646,1.4649,1.4671,1.4672,1.4672,1.4673,0,1.4376,1.4381,1.4406,1.4433,1.4453,1.4474,1.4494,1.4507,1.4518,1.4538,1.4566,1.4583,1.4617,1.4644,1.4669,1.468,1.4679,1.4679,1.4685,1.4686,1.4684,1.4687,1.4616,1.4677,1.4677,1.4676,1.4676,1.4676,1.441,1.4431,1.4454,1.4481,1.4498,1.4517,1.4538,1.4551,1.4575,1.4604,1.4607,1.4638,1.4658,1.4692,1.4705,1.4729,1.4723,1.4732,1.4735,1.4737,1.474,1.4679,1.4733,1.4733,1.4733,1.4733,1.4733,0,1.446,1.4475,1.45,1.453,1.4552,1.455,1.4572,1.4591,1.4619,1.4638,1.4661,1.4694,1.472,1.4736,1.4762,1.4779,1.4779,1.4785,1.4785,1.4788,1.4744,1.4736,1.4785,1.4785,1.4785,1.4785,1.4785,1.4785,1.4489,1.4525,1.4533,1.4577,1.4592,1.4623,1.4637,1.4655,1.4671,1.4709,1.4732,1.4742,1.476,1.4788,1.4812,1.4816,1.4827,1.4835,1.4838,1.4796,1.4791,1.4786,1.4779,1.4836,1.4836,1.4881,1.4881,1.4881]}]]